Simultaneous Nadir Overpasses (SNOs) Predictions

Prediction of SNOs between GOES-16 and METOP-C Satellite Orbit:

Table of predicted SNOs for the next 14.0 days since TLE Epoch: 10/27/2024
Index Date Time (GOES-16) GOES-16 Lat,Lon METOP-C Lat,Lon Distance(km) Time Diff (sec)
1 10/28/2024 02:30:59 0.05, -75.20 0.03, -75.30 10.63 80
2 10/30/2024 14:29:12 -0.05, -75.26 -0.16, -74.87 44.76 80
3 11/01/2024 02:50:52 0.04, -75.25 -0.91, -79.46 479.84 80
4 11/02/2024 02:28:38 0.04, -75.26 0.20, -74.46 90.80 14
5 11/03/2024 14:49:04 -0.04, -75.31 0.81, -79.02 423.52 80
6 11/04/2024 14:25:44 -0.04, -75.32 -0.31, -74.02 147.25 80
7 11/06/2024 02:47:25 0.03, -75.32 -0.72, -78.62 376.70 80
8 11/07/2024 02:24:05 0.03, -75.33 0.41, -73.62 194.33 80
9 11/08/2024 14:45:36 -0.02, -75.38 0.58, -78.19 319.25 80
10 11/09/2024 14:22:16 -0.02, -75.40 -0.49, -73.18 252.18 80
